Regional Weather Roundup
Issued by NWS

Home | Current Version | Previous Version | Graphics & Text | Print | Product List | Glossary On
Versions: 1 2 3 4 5 6 7 8 9 10 11 12 13 14 15 16 17 18 19 20 21 22 23 24 25 26 27 28 29 30 31 32 33 34 35 36 37 38 39 40 41 42 43 44 45 46 47 48 49 50
000
ASUS43 KOAX 231602
RWRNE

WEATHER ROUNDUP FOR NEBRASKA
NATIONAL WEATHER SERVICE OMAHA NE
1100 AM CDT MON APR 23 2018

NOTES: SATELLITE DATA IS BEING USED TO AUGMENT CLOUD COVER ABOVE
       12000 FEET.
       "FAIR" INDICATES FEW OR NO CLOUDS BELOW 12,000 FEET WITH NO
       SIGNIFICANT WEATHER AND/OR OBSTRUCTIONS TO VISIBILITY.


NEZ001>004-019>022-054>056-231700-
NEBRASKA PANHANDLE

CITY           SKY/WX    TMP DP  RH WIND       PRES   REMARKS
SCOTTSBLUFF    SUNNY     54  43  66 SE12      30.09F
ALLIANCE       SUNNY     56  40  55 S16       30.11S
CHADRON        SUNNY     61  41  47 S12       30.07F
GORDON         FAIR      58  40  51 S9        30.11F
KIMBALL        SUNNY     56  38  51 S14       30.11S
SIDNEY         SUNNY     54  39  57 S15       30.12R
$$

NEZ057>060-069>072-079>082-231700-
SOUTHWEST NEBRASKA

CITY           SKY/WX    TMP DP  RH WIND       PRES   REMARKS
NORTH PLATTE   SUNNY     58  42  55 S8        30.16F
IMPERIAL       SUNNY     57  40  52 SE15G24   30.15F
LEXINGTON      SUNNY     59  42  53 SE7       30.18S
MCCOOK         SUNNY     57  42  57 E5        30.17F
OGALLALA       SUNNY     56  42  58 S12       30.15F
$$

NEZ005>010-023>029-035>040-094-231700-
NORTH CENTRAL NEBRASKA

CITY           SKY/WX    TMP DP  RH WIND       PRES   REMARKS
VALENTINE      SUNNY     62  38  40 S15       30.15F
AINSWORTH      SUNNY     59  40  49 S10       30.17S
BROKEN BOW     SUNNY     60  39  45 SE8       30.17S
O`NEILL        SUNNY     66  33  29 S8        30.19S
ORD            SUNNY     60  39  45 CALM      30.17F
THEDFORD       SUNNY     59  40  49 S8        30.17S
$$

NEZ041-046>049-061>064-073>077-083>087-231700-
SOUTH CENTRAL NEBRASKA

CITY           SKY/WX    TMP DP  RH WIND       PRES   REMARKS
GRAND ISLAND   SUNNY     59  38  45 S3        30.19S
AURORA         SUNNY     61  40  46 S3        30.18F
HASTINGS       SUNNY     59  41  51 VRB7      30.19S
HEBRON         SUNNY     64  34  32 CALM      30.17S
HOLDREGE       SUNNY     60  37  42 SE3       30.18S
KEARNEY        SUNNY     61  39  44 SE3       30.19S
YORK             N/A     64  39  39 CALM      30.18F
$$

NEZ011>018-030>034-042>045-231700-
NORTHEAST NEBRASKA

CITY           SKY/WX    TMP DP  RH WIND       PRES   REMARKS
NORFOLK        SUNNY     61  35  37 CALM      30.19S
ALBION         SUNNY     62  37  39 SE3       30.18F
BLAIR          SUNNY     63  33  32 E6        30.19S
COLUMBUS       SUNNY     62  39  42 CALM      30.20S
FREMONT        SUNNY     64  32  30 CALM      30.19F
TEKAMAH        SUNNY     61  32  33 VRB3      30.19F
WAYNE          SUNNY     62  33  34 CALM      30.20S
$$

NEZ050>053-065>068-078-088>093-231700-
SOUTHEAST NEBRASKA

CITY           SKY/WX    TMP DP  RH WIND       PRES   REMARKS
LINCOLN        SUNNY     63  30  28 E5        30.19F
OMAHA EPPLEY   MOSUNNY   64  32  30 CALM      30.18F
FALLS CITY     MOSUNNY   65  31  28 NE14G20   30.14F
NEBRASKA CITY  SUNNY     64  34  32 NE9       30.17S
PLATTSMOUTH    SUNNY     64  31  29 NE7       30.18S
$$

NEZ044-045-051>053-067-231700-
OMAHA AREA

CITY           SKY/WX    TMP DP  RH WIND       PRES   REMARKS
OMAHA EPPLEY   MOSUNNY   64  32  30 CALM      30.18F
BLAIR          SUNNY     63  33  32 E6        30.19S
FREMONT        SUNNY     64  32  30 CALM      30.19F
MILLARD        SUNNY     64  33  31 NE3       30.18S
OFFUTT AFB     SUNNY     64  34  32 NE7       30.17F
PLATTSMOUTH    SUNNY     64  31  29 NE7       30.18S
WAHOO          FAIR      65  25  21 CALM      30.19S
$$




USA.gov is the U.S. government's official web portal to all federal, state and local government web resources and services.